Weather History for KPYM - December, 2012

Change the Weather History Date:

Monday, December 17, 2012

  Actual Average Record
Temperature  
Mean Temperature 42 °F -  
Max Temperature 46 °F 44 °F 62 °F (1971)
Min Temperature 39 °F 24 °F 4 °F (1951)
Degree Days  
Heating Degree Days 22    
Moisture  
Dew Point 43 °F    
Average Humidity 92    
Maximum Humidity 93    
Minimum Humidity 87    
Precipitation  
Precipitation 0.37 in - - ()
Sea Level Pressure  
Sea Level Pressure 29.91 in    
Wind  
Wind Speed 10 mph (ENE)    
Max Wind Speed 14 mph    
Max Gust Speed 25 mph    
Visibility 3 miles    
Events Rain    
Averages and records for this station are not official NWS values.
T = Trace of Precipitation, MM = Missing Value Source: NWS Daily Summary

Daily Weather History Graph

Daily Weather History Graph

Search for Another Location

Airport or City:

Trip Planner

Search our weather history database for the weather conditions in past years. The results will help you decide how hot, cold, wet, or windy it might be!

Date:

Astronomy

Dec. 17, 2012 Rise Set
Actual Time 7:05 AM EST 4:13 PM EST
Civil Twilight 6:33 AM EST 4:45 PM EST
Nautical Twilight 5:58 AM EST 5:20 PM EST
Astronomical Twilight 5:24 AM EST 5:54 PM EST
Moon 10:08 AM EST (12/17) 9:35 PM EST (12/17)
Length of Visible Light 10h 11m
Length of Day
9h 08m
Waxing Crescent, 24% of the Moon is Illuminated
Dec 17
Waxing Crescent
Dec 20
First Quarter
Dec 28
Full
Jan 4
Last Quarter
Jan 11
New

Hourly Weather History & Observations

Time (EST) Temp. Windchill Dew Point Humidity Pressure Visibility Wind Dir Wind Speed Gust Speed Precip Events Conditions
12:52 AM 39.9 °F 32.9 °F 37.0 °F 89% 30.04 in 6.0 mi East 11.5 mph 17.3 mph 0.08 in   Overcast
1:52 AM 39.9 °F 32.9 °F 37.9 °F 93% 30.03 in 3.0 mi ENE 11.5 mph - 0.02 in Rain Light Rain
2:52 AM 41.0 °F 33.9 °F 37.9 °F 89% 30.01 in 3.0 mi ENE 12.7 mph 18.4 mph 0.01 in   Overcast
3:52 AM 41.0 °F 34.3 °F 39.0 °F 93% 29.99 in 3.0 mi ENE 11.5 mph - 0.01 in Rain Light Rain
4:52 AM 42.1 °F 36.6 °F 39.9 °F 92% 29.97 in 3.0 mi ENE 9.2 mph - 0.02 in   Overcast
5:05 AM 42.8 °F 36.2 °F 39.2 °F 87% 29.97 in 3.0 mi ENE 12.7 mph 17.3 mph 0.00 in   Overcast
5:21 AM 42.8 °F 35.8 °F 39.2 °F 87% 29.96 in 2.5 mi ENE 13.8 mph 25.3 mph 0.01 in Rain Light Rain
5:47 AM 42.8 °F 37.5 °F 39.2 °F 87% 29.97 in 3.0 mi ENE 9.2 mph 19.6 mph 0.01 in Rain Light Rain
5:52 AM 42.1 °F 36.6 °F 39.9 °F 92% 29.97 in 3.0 mi ENE 9.2 mph - 0.02 in Rain Light Rain
6:52 AM 43.0 °F 37.7 °F 39.9 °F 89% 29.98 in 3.0 mi ENE 9.2 mph - 0.02 in Rain Light Rain
7:40 AM 42.8 °F 37.5 °F 41.0 °F 93% 29.96 in 2.5 mi ENE 9.2 mph - 0.03 in Rain Light Rain
7:52 AM 44.1 °F 38.1 °F 41.0 °F 89% 29.96 in 2.5 mi ENE 11.5 mph - 0.03 in Rain Light Rain
8:52 AM 44.1 °F 39.0 °F 42.1 °F 93% 29.96 in 1.8 mi NE 9.2 mph - 0.01 in   Overcast
9:17 AM 44.6 °F 38.8 °F 42.8 °F 93% 29.95 in 2.0 mi ENE 11.5 mph - N/A   Overcast
9:52 AM 45.0 °F 39.7 °F 43.0 °F 93% 29.95 in 2.0 mi ENE 10.4 mph - 0.01 in   Overcast
10:12 AM 44.6 °F 38.8 °F 42.8 °F 93% 29.94 in 3.0 mi ENE 11.5 mph 19.6 mph N/A   Overcast
10:52 AM 45.0 °F 41.2 °F 43.0 °F 93% 29.93 in 3.0 mi ENE 6.9 mph 16.1 mph N/A   Overcast
11:46 AM 46.4 °F 41.9 °F 42.8 °F 87% 29.91 in 1.8 mi ENE 9.2 mph - N/A   Overcast
11:52 AM 46.0 °F 41.4 °F 43.0 °F 89% 29.92 in 1.2 mi ENE 9.2 mph - 0.01 in Rain Light Rain
12:40 PM 46.4 °F 43.5 °F 42.8 °F 87% 29.90 in 1.8 mi NE 5.8 mph - 0.01 in   Overcast
12:52 PM 46.0 °F 41.9 °F 44.1 °F 93% 29.90 in 1.5 mi NE 8.1 mph - 0.02 in   Overcast
1:52 PM 46.9 °F - 44.1 °F 90% 29.91 in 1.5 mi NNE 6.9 mph - 0.02 in Rain Light Rain
2:39 PM 46.4 °F 43.5 °F 44.6 °F 93% 29.89 in 2.0 mi NE 5.8 mph - 0.04 in Rain Light Rain
2:52 PM 46.9 °F - 45.0 °F 93% 29.92 in 2.5 mi Calm Calm - 0.04 in Rain Light Rain
3:12 PM 46.4 °F 44.3 °F 44.6 °F 93% 29.90 in 1.8 mi NE 4.6 mph - 0.01 in Rain Light Rain
3:34 PM 46.4 °F 42.4 °F 44.6 °F 93% 29.86 in 3.0 mi ENE 8.1 mph - 0.02 in   Overcast
3:52 PM 46.9 °F - 45.0 °F 93% 29.85 in 4.0 mi East 8.1 mph - 0.02 in   Overcast
4:05 PM 46.4 °F 42.4 °F 44.6 °F 93% 29.87 in 2.0 mi East 8.1 mph - N/A   Overcast
4:12 PM 46.4 °F 43.5 °F 44.6 °F 93% 29.87 in 1.8 mi East 5.8 mph - N/A   Overcast
4:23 PM 46.4 °F 44.3 °F 44.6 °F 93% 29.88 in 2.0 mi East 4.6 mph - N/A   Overcast
4:52 PM 46.9 °F - 44.1 °F 90% 29.85 in 2.5 mi East 8.1 mph - 0.01 in   Overcast
4:59 PM 46.4 °F 41.9 °F 44.6 °F 93% 29.85 in 3.0 mi East 9.2 mph 17.3 mph N/A   Overcast
7:52 PM 46.9 °F - 45.0 °F 93% 29.86 in 3.0 mi East 8.1 mph - N/A   Overcast
8:01 PM 46.4 °F 42.9 °F 44.6 °F 93% 29.86 in 2.5 mi East 6.9 mph - N/A   Overcast
8:14 PM 46.4 °F 44.3 °F 44.6 °F 93% 29.86 in 3.0 mi East 4.6 mph - 0.01 in   Overcast
8:52 PM 46.9 °F - 45.0 °F 93% 29.85 in 5.0 mi East 8.1 mph - 0.01 in   Overcast
9:52 PM 46.9 °F - 45.0 °F 93% 29.82 in 5.0 mi East 11.5 mph 19.6 mph N/A   Overcast
10:52 PM 46.9 °F - 45.0 °F 93% 29.80 in 5.0 mi East 11.5 mph 18.4 mph N/A   Overcast
11:10 PM 46.4 °F 41.1 °F 44.6 °F 93% 29.77 in 2.5 mi East 11.5 mph - N/A   Overcast
11:52 PM 46.9 °F - 45.0 °F 93% 29.76 in 2.0 mi ENE 8.1 mph - 0.01 in   Overcast